Regional Weather Roundup
Issued by NWS Midland/Odessa, TX

Skip options and go directly to product.
Home | Oldest Version | Previous Version | Current Version | All | Text Only | Save Text | Print | Product List | Glossary Off

Skip product version selection by date and time.   

388
ASUS44 KMAF 280601
RWRMAF
MIDLAND AREA WEATHER ROUNDUP
NATIONAL WEATHER SERVICE MIDLAND TX
100 AM CDT TUE JUN 28 2016

...IN SOUTHWEST TEXAS AND SOUTHEAST NEW MEXICO...

CITY           SKY/WX    TMP DP  RH WIND       PRES   REMARKS
ALPINE         CLOUDY    67  63  87 CALM      30.31S
ANDREWS        CLOUDY    72  60  66 SE3       30.23S
ARTESIA        CLOUDY    73  68  83 SE8       30.25R
BIG SPRING     CLOUDY    74  63  67 NE3       30.21S
CARLSBAD       CLOUDY    71  66  84 E5        30.21S
DRYDEN           N/A     75  69  81 NE6       30.12S
FORT STOCKTON  CLOUDY    72  69  90 E7        30.18S
GUAD PASS      FOG       64  64 100 E28       30.30F VSB 3/4
HOBBS          CLEAR     66  63  88 E6        30.26F
MARFA          CLOUDY   N/A N/A N/A N5        30.28S
MIDLAND AIRPK  CLOUDY    75  65  71 E3        30.21S
MIDLAND INTL   CLOUDY    75  65  70 CALM      30.20S
ODESSA         CLOUDY    72  65  78 E7        30.21F
PECOS          PTCLDY    73  68  85 E8        30.16F
PRESIDIO       NOT AVBL
SEMINOLE       CLOUDY    69  58  69 CALM      30.25F
SNYDER           N/A     73  61  65 CALM      30.19S
WINK           MOCLDY    72  67  84 E6        30.17F
$$
...OTHER STATIONS IN TEXAS...

CITY           SKY/WX    TMP DP  RH WIND       PRES   REMARKS
ABILENE        CLEAR     78  66  66 E5        30.15S
AMARILLO       CLEAR     71  59  65 S7        30.26S
AUSTIN         CLEAR     75  73  93 CALM      30.05F
BROWNSVILLE    CLEAR     81  77  88 E5        30.04F
CORPUS CHRISTI PTCLDY    77  74  90 S5        30.04F
DALLAS FTW     CLOUDY    83  72  69 N6        30.07S
DEL RIO        CLEAR     79  67  66 E8        30.06R
EL PASO        PTCLDY    77  59  53 E9        30.19R
HOUSTON INT    CLOUDY    80  75  84 CALM      30.03F
LUBBOCK        PTCLDY    73  59  61 S7        30.24S
SAN ANGELO     CLOUDY    76  72  87 E5        30.13S
SAN ANTONIO    PTCLDY    80  67  64 CALM      30.08S
WACO           CLEAR     79  70  74 N3        30.07S
WICHITA FALLS  NOT AVBL
$$
...OTHER LOCATIONS IN NEW MEXICO...

CITY           SKY/WX    TMP DP  RH WIND       PRES   REMARKS
ALAMAGORDO     CLEAR     73  57  56 SW3       30.20R
ALBUQUERQUE    PTCLDY    75  50  41 E9        30.31R
CANNON AFB     CLEAR     65  63  91 S7        30.30S
CLOVIS         CLEAR     64  57  77 S7        30.29F
HOLLOMAN AFB   CLEAR     76  56  49 W7        30.17R
ROSWELL        CLEAR     72  62  71 S3        30.25S
RUIDOSO          N/A     59  55  88 SE5       30.45S
SANTA FE       CLOUDY    68  49  50 SE5       30.40R
TRUTH OR CONSE PTCLDY    77  51  40 SE5       30.24R
TUCUMCARI      CLEAR     73  59  61 S3        30.27R
$$

USA.gov is the U.S. government's official web portal to all federal, state and local government web resources and services.